Theta_e
322 320 315 309 299 298 294 295 297 297 303 311 316 313 311 315 312 307 330 335 337 341 339 344 346 346 348 348 349 349 349 349 348 348 348 347 346 345 344 343 342 343 342 339 339 338 338 338 336
316 314 310 302 296 293 294 295 296 299 308 313 316 317 314 310 320 326 326 332 335 341 341 345 345 346 347 347 348 348 349 348 348 348 346 345 345 345 344 342 342 342 342 338 338 337 337 337 337
312 308 305 298 293 293 293 296 299 301 310 312 311 319 317 313 319 324 329 332 335 343 343 344 344 344 346 346 346 346 346 346 346 346 345 345 345 345 344 342 342 342 342 341 338 337 336 336 336
311 308 302 298 293 295 296 300 299 303 309 313 316 311 318 324 325 331 335 334 332 339 343 343 342 343 345 346 347 345 345 344 344 344 344 345 345 344 343 342 342 343 343 340 337 336 335 336 334
307 304 297 294 293 296 298 299 300 305 309 310 311 307 312 321 329 331 333 332 334 333 341 344 340 342 344 345 346 344 344 343 343 342 342 343 344 343 342 341 341 341 342 341 337 334 334 334 333
303 302 295 293 293 296 299 301 306 308 311 311 310 309 310 325 326 329 332 333 334 331 333 339 341 342 341 342 344 342 342 342 341 341 341 342 342 341 340 340 338 338 339 339 337 335 334 333 331
301 299 293 292 293 295 298 309 305 307 310 310 314 309 314 321 327 330 332 334 336 333 331 334 335 339 337 336 338 339 340 340 340 339 339 339 339 339 339 338 337 338 338 338 335 334 333 332 331
302 300 293 293 293 294 300 308 310 310 309 317 317 310 312 321 329 332 333 333 333 335 334 334 333 331 329 335 333 335 337 338 338 338 337 337 337 337 336 335 337 339 338 337 334 333 332 331 330
301 297 293 294 293 297 305 306 311 313 312 316 319 318 322 326 329 328 329 329 329 330 331 329 330 326 328 330 328 333 337 336 337 337 336 334 337 334 331 331 335 337 335 333 333 332 331 329 328
300 296 295 298 298 299 301 306 307 308 307 310 314 320 324 324 324 324 325 323 323 324 326 326 326 327 326 328 327 328 330 332 335 337 338 334 334 331 328 330 331 332 333 333 332 331 330 327 325
298 296 298 299 301 301 299 303 309 307 305 309 311 315 320 321 320 322 323 324 323 321 323 325 324 324 325 325 326 325 324 328 332 337 334 333 330 331 329 327 327 329 331 331 330 328 326 326 324
296 299 299 300 300 301 301 307 307 308 309 316 316 317 318 317 318 320 320 322 322 321 323 323 322 323 325 323 322 321 324 327 328 335 332 329 328 327 327 324 324 323 324 326 328 324 324 325 324
296 298 298 300 300 301 307 307 308 310 314 317 318 318 318 316 316 318 319 320 322 322 322 321 322 322 322 321 322 321 323 325 326 332 330 326 324 324 324 323 321 320 321 322 321 322 323 322 323
300 299 301 302 302 303 305 306 310 311 316 316 317 317 317 315 315 315 317 318 320 322 322 321 322 321 321 319 322 322 322 323 326 329 328 326 324 325 322 321 320 320 318 318 319 320 321 321 321
301 298 299 300 300 303 308 303 305 312 316 314 314 316 316 316 314 313 316 318 319 322 322 321 322 321 318 319 319 322 321 322 323 328 328 326 326 325 324 320 319 320 319 318 315 316 317 317 318
298 296 293 298 302 302 305 297 301 310 314 312 313 313 312 314 314 314 317 317 320 318 321 322 322 320 319 318 319 321 320 320 322 325 327 325 325 325 324 320 320 321 319 317 314 312 311 311 312
294 291 291 294 300 302 302 299 303 311 312 311 312 313 313 312 313 314 316 316 318 319 318 321 320 319 321 321 319 323 323 320 320 323 323 324 322 323 323 322 322 321 320 318 316 313 312 309 309
290 290 291 293 299 301 299 299 303 308 311 311 312 312 312 311 311 314 315 317 317 318 319 318 321 319 320 320 321 323 323 322 322 322 323 324 323 323 324 323 322 321 320 318 317 315 314 311 309
294 292 291 293 296 296 296 296 300 301 308 310 312 312 311 311 313 314 315 317 316 317 318 317 318 318 319 318 318 318 318 319 322 323 324 324 324 323 323 323 322 321 320 320 319 317 314 311 310
294 292 292 295 296 295 297 296 301 302 305 308 310 312 312 311 311 312 314 315 315 315 316 317 318 319 319 319 319 321 318 316 322 324 324 324 324 323 324 323 323 322 321 321 320 318 315 314 310
294 292 292 292 294 296 296 295 298 301 304 306 308 312 313 312 310 310 310 313 314 314 316 316 317 318 319 321 320 319 318 315 315 317 320 322 324 325 325 325 325 323 323 322 321 319 317 313 311
290 295 294 292 291 288 296 287 295 299 300 303 306 308 310 311 312 311 309 310 312 315 317 318 318 317 318 319 319 316 316 312 317 316 315 317 320 321 324 323 323 322 322 321 321 320 318 317 314
293 297 295 294 292 291 292 290 294 296 298 301 305 307 309 311 312 311 310 311 313 315 314 317 317 316 317 318 320 317 314 316 317 315 313 316 318 320 319 320 321 323 323 324 322 320 317 318 316
298 295 295 294 292 286 291 291 291 294 298 301 304 307 309 310 312 313 313 313 312 314 314 315 317 314 315 316 317 317 315 314 312 313 312 312 313 316 317 317 317 322 324 324 324 323 321 319 318
296 293 286 285 285 285 291 289 293 299 301 302 304 306 308 310 312 313 311 310 310 309 311 313 315 315 315 315 317 317 316 316 314 313 313 314 312 314 316 319 319 322 323 323 324 323 322 321 320
293 293 287 282 283 286 292 288 294 302 304 304 305 306 308 310 312 313 313 312 311 310 311 312 313 314 315 314 314 316 318 318 318 318 317 317 315 316 320 319 320 321 322 322 323 324 323 322 321
292 289 295 288 289 287 290 294 298 302 301 303 303 303 306 310 311 313 314 313 313 312 312 312 313 314 315 315 315 315 315 316 316 318 318 318 319 318 318 319 320 321 321 322 322 323 322 321 320
296 297 289 289 282 281 286 289 292 297 299 301 303 302 305 310 310 313 314 313 314 314 313 313 314 313 315 315 316 315 315 315 316 317 317 317 319 319 319 319 320 321 321 322 322 323 322 319 318
293 292 293 293 289 285 283 288 299 300 301 302 304 304 304 306 310 311 315 315 314 314 313 312 313 313 314 315 315 316 315 316 316 316 317 317 319 319 318 318 318 319 320 322 323 322 320 317 316
296 293 294 288 286 288 287 289 300 302 303 303 304 305 306 305 309 311 313 316 315 313 313 312 312 313 314 315 315 315 316 316 316 316 317 318 318 320 319 320 319 320 321 320 321 319 318 316 314
Wind_Speed
3 4 2 2 2 1 1 2 2 5 3 2 1 4 3 4 6 4 3 6 4 15 14 15 13 15 18 22 23 23 24 24 25 23 27 23 20 22 23 23 21 22 23 24 23 23 22 23 22
5 3 3 3 2 1 1 2 5 6 4 2 3 4 4 4 3 2 0 4 5 14 14 14 13 16 19 22 23 24 24 25 25 27 29 25 22 22 24 23 22 23 23 25 24 23 23 23 21
4 3 0 3 3 2 3 6 7 4 5 4 3 3 2 3 2 1 4 3 1 14 14 15 15 17 19 22 24 24 23 24 24 24 26 26 25 24 23 22 23 23 24 25 23 23 22 21 19
2 2 4 2 2 4 5 4 4 6 2 6 2 6 3 0 0 2 5 2 2 6 12 16 18 19 22 22 22 25 23 23 25 24 28 25 26 24 22 21 21 21 20 22 23 23 22 19 19
3 2 1 1 3 4 5 5 5 6 3 1 2 2 4 1 2 0 2 0 5 3 9 15 15 18 19 21 22 23 22 24 25 26 25 28 26 23 21 19 20 20 21 22 23 22 20 19 19
3 0 1 3 3 4 5 6 2 5 4 2 3 4 2 1 4 5 4 2 3 4 3 11 15 15 17 21 21 23 22 23 25 26 25 27 27 23 20 19 18 18 20 22 21 20 19 19 19
4 2 2 2 3 4 4 5 4 3 5 3 1 3 1 3 4 6 3 3 5 6 6 3 3 8 10 8 13 19 22 21 23 24 24 26 26 22 19 18 16 16 20 21 20 19 19 20 19
5 2 4 4 4 4 3 4 3 6 5 3 3 5 2 2 2 2 3 4 2 6 7 8 8 3 7 6 5 11 17 20 22 24 21 22 25 23 18 17 16 18 22 21 20 19 19 18 17
4 2 4 5 6 2 3 5 3 1 3 3 4 2 1 2 2 2 2 2 5 4 9 9 8 6 7 5 3 9 20 21 21 21 22 20 15 18 19 15 17 20 20 21 19 19 18 17 15
4 4 9 6 5 5 3 7 4 4 4 5 4 4 2 0 2 3 3 3 4 6 9 9 10 10 11 7 12 9 10 13 12 15 16 12 14 14 13 15 16 17 17 18 18 16 17 15 11
6 8 6 6 11 6 5 3 8 6 8 8 5 5 7 3 3 4 3 3 4 10 7 7 6 9 10 8 8 8 3 4 12 15 13 14 12 10 9 8 9 11 14 11 14 13 9 12 9
4 8 6 4 4 2 4 3 5 10 5 5 4 5 8 6 5 4 1 3 6 11 8 8 10 10 11 9 7 5 3 3 7 10 15 12 9 10 9 7 10 9 8 12 11 8 10 10 10
6 6 6 10 7 6 3 7 6 10 8 7 10 8 8 7 5 0 1 2 6 5 8 9 12 12 10 10 8 5 5 5 3 11 11 10 10 10 10 9 9 9 8 9 9 11 9 10 10
7 8 6 6 8 3 5 3 3 4 9 9 10 10 8 8 6 3 4 3 3 7 7 9 11 10 9 8 10 5 5 5 4 5 9 13 9 8 10 10 9 8 9 8 10 10 9 7 8
3 4 5 6 3 5 6 6 10 4 9 10 8 8 8 6 6 6 6 6 5 4 8 11 10 12 9 9 5 7 6 5 3 6 9 11 11 10 11 10 9 8 9 11 8 9 8 8 7
4 1 5 1 4 1 5 12 3 8 12 11 10 7 8 7 7 6 6 6 6 6 6 9 8 12 10 7 5 6 7 6 5 5 6 10 12 13 11 10 9 9 9 8 8 9 8 7 7
1 6 6 4 4 4 5 7 2 6 11 11 12 9 8 8 8 7 6 6 6 7 5 10 12 12 14 10 6 7 8 7 7 2 3 8 9 11 11 10 9 10 8 8 8 7 7 7 6
8 5 5 7 5 2 4 15 15 8 12 13 13 11 10 10 11 10 9 7 7 7 7 5 8 13 12 9 7 5 6 6 6 5 6 9 9 12 9 8 10 9 8 7 7 9 6 6 7
7 4 4 3 4 3 7 11 15 6 9 11 13 13 13 13 10 9 9 9 9 7 7 8 6 14 10 10 9 8 8 6 7 9 12 10 11 12 10 7 8 9 9 10 10 7 8 5 6
6 5 7 8 6 7 8 13 13 6 6 9 14 14 14 12 11 12 12 11 11 11 11 9 9 11 11 10 9 7 10 3 5 8 10 13 13 13 10 10 8 10 8 8 9 8 5 4 7
12 11 7 8 5 4 4 6 6 3 5 5 9 12 13 16 15 15 15 14 13 13 12 11 10 12 13 13 8 6 9 4 4 7 8 10 11 11 12 11 9 7 6 8 9 9 9 7 6
14 10 7 5 3 5 3 7 7 9 9 8 9 12 14 16 16 16 17 16 16 14 12 12 12 11 9 15 12 16 15 12 11 7 7 5 6 8 11 11 5 5 6 9 9 9 9 6 8
10 8 10 7 6 4 3 6 2 4 9 11 8 11 15 18 19 20 20 19 17 15 14 13 13 12 13 14 15 12 13 9 5 6 9 8 8 8 7 7 11 7 5 9 9 9 11 8 5
7 3 4 3 3 7 7 7 3 5 10 7 6 6 9 16 17 16 17 17 15 14 14 14 17 15 13 13 14 16 15 12 6 8 8 6 5 5 6 8 7 8 11 10 9 11 11 10 10
5 6 3 5 5 7 1 7 11 9 12 11 12 11 6 13 16 17 19 19 17 18 18 15 17 18 18 16 16 15 15 16 13 11 11 13 9 7 10 11 10 12 12 11 10 10 11 11 10
13 12 5 7 6 4 4 6 6 8 10 9 11 11 6 10 15 19 20 19 19 20 20 18 19 18 18 19 18 16 18 12 14 16 13 12 12 11 12 11 12 13 13 12 12 9 9 9 9
6 9 5 3 2 1 3 4 10 10 7 10 8 8 11 9 14 18 18 19 20 20 21 22 21 20 21 21 18 18 17 17 16 16 14 11 13 10 11 12 12 13 13 14 13 9 10 10 11
8 10 6 1 6 8 3 3 7 6 8 6 5 7 7 5 10 14 16 18 17 18 19 20 21 22 21 20 18 17 18 18 15 14 15 15 14 14 14 14 15 14 14 13 12 11 10 10 9
6 8 1 3 3 4 4 4 8 13 10 7 6 5 4 6 9 13 14 15 16 16 18 19 20 21 20 20 19 19 18 19 17 16 16 16 15 16 16 16 15 16 15 16 15 14 12 11 12
2 5 8 4 5 1 1 8 4 9 10 6 9 7 6 3 5 9 12 14 16 18 19 20 20 20 20 18 18 18 17 18 18 18 19 17 16 15 16 16 16 17 17 15 16 13 10 12 12
Wind_Direction
125 118 110 66 212 331 122 212 270 261 257 203 205 221 257 295 256 305 351 224 266 176 175 165 153 153 147 146 145 144 147 140 133 132 124 131 135 129 125 123 124 122 120 119 118 117 115 113 108
128 110 64 85 122 128 132 221 237 260 257 263 256 235 243 265 216 274 204 272 273 171 174 169 159 155 152 149 144 146 145 143 143 137 132 132 135 131 127 129 130 125 124 122 123 121 121 119 113
126 50 143 86 119 169 225 209 245 274 230 214 245 246 254 231 132 14 8 265 248 177 172 169 160 160 153 150 147 148 146 142 138 132 132 135 137 133 133 133 132 133 132 124 123 123 122 118 115
120 92 93 241 201 228 228 247 226 288 244 215 197 258 248 43 109 46 352 181 161 181 170 172 162 165 158 157 153 148 148 145 139 141 135 139 134 133 135 137 139 136 132 129 131 127 127 119 114
55 82 98 259 267 264 245 266 245 246 272 178 180 282 250 123 330 315 11 150 200 234 179 169 171 164 158 155 152 146 148 144 142 142 142 137 133 133 136 138 133 133 134 131 130 130 124 120 115
96 90 171 230 243 260 276 249 243 247 262 130 217 255 269 2 356 337 334 301 217 247 290 184 173 165 159 165 153 149 150 148 146 141 142 136 132 135 138 137 135 136 133 130 131 129 125 121 119
129 153 214 225 262 284 242 153 214 273 270 256 186 249 328 300 326 315 325 229 234 206 215 133 23 167 129 109 161 156 146 148 145 141 142 137 132 135 135 131 133 139 139 135 133 129 128 124 121
120 149 166 218 212 261 217 201 187 196 251 124 159 256 266 316 329 13 48 109 166 191 176 125 114 98 81 104 108 143 145 146 152 137 138 131 127 126 128 129 134 141 140 138 135 132 126 126 123
138 168 216 218 193 258 175 218 178 348 238 183 196 216 279 253 16 73 103 105 109 116 141 127 132 136 111 138 103 154 169 163 141 133 129 127 130 134 141 133 136 133 140 135 135 133 129 123 123
179 201 214 206 209 256 266 227 185 218 226 229 221 202 175 69 289 259 185 136 123 127 140 137 149 181 160 158 170 182 176 176 144 137 137 126 129 134 139 133 126 124 134 139 134 130 127 136 132
174 228 207 234 234 258 279 237 189 206 248 229 211 192 180 157 231 256 215 168 147 147 149 152 128 155 144 148 153 164 183 169 149 143 129 129 128 130 133 137 132 129 131 146 139 137 145 139 140
204 235 211 259 216 175 244 154 216 213 261 105 138 164 171 170 219 215 266 208 141 169 155 141 140 146 147 148 141 121 150 139 176 133 134 135 131 131 143 141 138 136 146 142 152 149 141 143 140
212 249 189 243 251 244 174 223 243 233 223 123 126 138 159 168 202 53 103 288 123 178 155 153 149 148 150 151 136 128 143 144 133 140 140 136 135 144 140 150 138 138 144 147 150 139 151 146 145
191 233 252 273 259 206 212 215 214 228 180 146 153 158 156 161 193 178 215 190 147 147 159 156 157 150 156 160 152 151 126 119 86 120 150 137 133 148 146 147 143 149 152 152 146 150 147 151 152
146 264 295 241 250 213 178 245 233 208 181 160 179 175 165 175 177 210 200 212 173 161 149 157 158 150 161 155 147 142 121 109 108 146 153 134 149 145 157 148 153 158 156 146 141 131 142 160 158
143 78 251 195 161 317 199 269 221 182 174 196 188 191 189 199 204 216 196 206 191 163 165 160 156 155 171 155 147 145 143 149 167 161 147 137 165 157 149 155 161 164 152 151 152 142 151 159 163
116 220 220 293 211 121 215 275 152 171 192 203 190 198 202 205 208 204 196 193 194 190 166 170 162 163 171 162 145 155 155 155 179 107 132 160 181 159 162 165 158 167 152 161 158 150 159 169 164
181 184 225 233 161 189 199 271 285 219 206 208 197 192 206 213 214 192 196 196 193 189 180 172 168 168 165 152 142 136 148 165 170 173 204 185 190 180 165 168 168 162 158 167 170 161 172 183 165
157 172 220 240 237 261 222 266 288 285 227 222 212 198 208 213 212 194 192 189 193 193 191 181 171 173 157 165 165 163 167 162 177 198 196 192 194 186 174 170 172 168 173 188 173 169 181 167 162
196 163 240 286 242 223 277 291 295 249 241 223 221 207 207 203 194 193 190 188 194 191 190 190 175 165 172 171 169 172 171 117 189 194 201 199 189 183 179 175 185 182 176 186 182 193 177 168 179
222 211 214 246 335 247 294 270 293 279 258 249 223 214 208 201 193 190 195 198 193 197 187 187 175 177 171 164 155 136 133 119 175 174 181 189 180 180 179 183 184 176 174 200 198 209 190 192 188
230 203 218 228 292 264 335 289 286 286 278 257 239 206 207 202 198 187 190 197 200 199 188 188 178 172 169 163 165 163 173 180 195 175 157 168 181 169 175 178 117 180 204 202 207 205 213 185 201
235 167 199 221 226 282 236 266 246 288 272 263 250 219 210 200 195 192 188 194 199 194 191 186 181 170 173 179 171 169 180 192 180 167 144 177 205 205 167 154 173 196 206 225 212 204 207 210 206
158 146 88 66 164 246 216 219 253 243 239 253 264 251 205 202 200 195 188 183 193 190 193 188 179 178 175 180 181 175 176 177 172 174 176 186 200 202 188 176 170 206 214 215 219 219 214 210 219
167 127 187 209 203 251 227 186 258 249 254 249 270 288 199 200 193 187 183 184 186 192 190 193 191 184 181 182 186 187 182 186 189 189 191 193 208 199 207 194 200 210 216 217 217 215 215 211 214
197 191 187 211 210 230 146 221 240 260 281 267 263 272 254 198 198 193 192 188 187 189 188 191 195 193 188 187 188 187 194 192 199 205 203 206 216 212 210 202 208 220 222 222 219 218 216 208 218
169 194 186 97 61 33 218 258 276 284 268 272 274 284 259 203 199 200 190 194 190 190 191 191 193 198 197 195 193 195 195 200 201 205 211 211 217 224 221 221 221 227 231 232 233 229 222 211 211
189 156 175 169 228 241 204 253 240 289 262 301 297 283 258 199 200 199 196 199 200 195 192 195 197 200 198 200 198 200 201 205 207 208 213 217 223 221 224 230 233 239 242 240 232 233 227 215 219
174 206 150 170 166 231 232 233 220 243 265 268 297 283 295 258 209 207 204 196 197 195 196 196 200 201 202 202 203 203 203 204 204 210 213 216 219 223 228 231 236 237 235 229 224 224 221 216 236
122 199 212 224 189 157 261 241 283 250 271 240 281 295 294 282 237 208 204 197 193 196 194 199 201 205 205 199 200 207 204 206 207 211 215 211 218 222 227 226 227 228 228 227 221 223 220 218 230